2022/12/21 00:00:00,34.3,-1.3
2022/12/21 00:10:00,34.2,-1.3
2022/12/21 00:20:00,34.2,-0.9
2022/12/21 00:30:00,34.2,-0.7
2022/12/21 00:40:00,34.1,-1.3
2022/12/21 00:50:00,34.1,-1.4
2022/12/21 01:00:00,34.1,-1.3
2022/12/21 01:10:00,34.1,-0.7
2022/12/21 01:20:00,34.0,-0.7
2022/12/21 01:30:00,34.0,-0.5
2022/12/21 01:40:00,34.0,-0.3
2022/12/21 01:50:00,34.0,-0.3
2022/12/21 02:00:00,33.9,-0.9
2022/12/21 02:10:00,33.9,-1.3
2022/12/21 02:20:00,33.8,-0.8
2022/12/21 02:30:00,33.8,-1.0
2022/12/21 02:40:00,33.8,-1.1
2022/12/21 02:50:00,33.8,-0.9
2022/12/21 03:00:00,33.7,-0.6
2022/12/21 03:10:00,33.7,-0.3
2022/12/21 03:20:00,33.7,-0.5
2022/12/21 03:30:00,33.7,-0.6
2022/12/21 03:40:00,33.6,-1.0
2022/12/21 03:50:00,33.6,-1.1
2022/12/21 04:00:00,33.6,-0.9
2022/12/21 04:10:00,33.5,-0.9
2022/12/21 04:20:00,33.5,-0.6
2022/12/21 04:30:00,33.5,-0.6
2022/12/21 04:40:00,33.5,-0.4
2022/12/21 04:50:00,33.4,-0.8
2022/12/21 05:00:00,33.4,-0.8
2022/12/21 05:10:00,33.3,-0.3
2022/12/21 05:20:00,33.3,-0.4
2022/12/21 05:30:00,33.3, 0.2
2022/12/21 05:40:00,33.3,-0.2
2022/12/21 05:50:00,33.2,-0.5
2022/12/21 06:00:00,33.2,-0.4
2022/12/21 06:10:00,33.2,-0.7
2022/12/21 06:20:00,33.1,-0.4
2022/12/21 06:30:00,33.1,-0.2
2022/12/21 06:40:00,33.1, 0.2
2022/12/21 06:50:00,33.1, 0.1
2022/12/21 07:00:00,33.0, 0.4
2022/12/21 07:10:00,32.9, 0.1
2022/12/21 07:20:00,32.9, 0.8
2022/12/21 07:30:00,32.9, 0.9
2022/12/21 07:40:00,32.8, 0.8
2022/12/21 07:50:00,32.7, 1.0
2022/12/21 08:00:00,32.7, 0.8
2022/12/21 08:10:00,32.7, 0.9
2022/12/21 08:20:00,32.7, 1.0
2022/12/21 08:30:00,32.6, 0.9
2022/12/21 08:40:00,32.5, 0.7
2022/12/21 08:50:00,32.6, 0.6
2022/12/21 09:00:00,32.6, 0.7
2022/12/21 09:10:00,32.6, 0.6
2022/12/21 09:20:00,32.5, 0.7
2022/12/21 09:30:00,32.5, 0.8
2022/12/21 09:40:00,32.5, 1.5
2022/12/21 09:50:00,32.5, 1.5
2022/12/21 10:00:00,32.5, 1.3
2022/12/21 10:10:00,32.5, 1.0
2022/12/21 10:20:00,32.5, 1.1
2022/12/21 10:30:00,32.5, 1.1
2022/12/21 10:40:00,32.4, 1.6
2022/12/21 10:50:00,32.6, 1.1
2022/12/21 11:00:00,32.6, 1.3
2022/12/21 11:10:00,32.6, 1.4
2022/12/21 11:20:00,32.6, 1.4
2022/12/21 11:30:00,32.5, 1.5
2022/12/21 11:40:00,32.4, 1.8
2022/12/21 11:50:00,32.4, 1.8
2022/12/21 12:00:00,32.4, 1.8
2022/12/21 12:10:00,32.4, 1.9
2022/12/21 12:20:00,32.3, 1.7
2022/12/21 12:30:00,32.3, 1.8
2022/12/21 12:40:00,32.4, 1.5
2022/12/21 12:50:00,32.5, 1.9
2022/12/21 13:00:00,32.5, 1.9
2022/12/21 13:10:00,32.6, 1.7
2022/12/21 13:20:00,32.6, 2.1
2022/12/21 13:30:00,32.4, 2.0
2022/12/21 13:40:00,32.3, 1.9
2022/12/21 13:50:00,32.2, 1.8
2022/12/21 14:00:00,32.1, 1.9
2022/12/21 14:10:00,32.0, 2.2
2022/12/21 14:20:00,31.9, 2.1
2022/12/21 14:30:00,31.7, 1.8
2022/12/21 14:40:00,31.6, 1.9
2022/12/21 14:50:00,31.3, 2.2
2022/12/21 15:00:00,31.2, 2.1
2022/12/21 15:10:00,31.1, 2.1
2022/12/21 15:20:00,31.0, 2.0
2022/12/21 15:30:00,30.8, 1.8
2022/12/21 15:40:00,30.6, 1.9
2022/12/21 15:50:00,30.2, 1.8
2022/12/21 16:00:00,29.7, 1.9
2022/12/21 16:10:00,29.2, 1.9
2022/12/21 16:20:00,28.7, 2.0
2022/12/21 16:30:00,28.2, 2.1
2022/12/21 16:40:00,28.3, 1.9
2022/12/21 16:50:00,28.1, 2.3
2022/12/21 17:00:00,28.0, 2.1
2022/12/21 17:10:00,27.9, 1.9
2022/12/21 17:20:00,27.8, 1.9
2022/12/21 17:30:00,27.5, 1.8
2022/12/21 17:40:00,27.3, 1.4
2022/12/21 17:50:00,27.2, 1.6
2022/12/21 18:00:00,27.0, 1.8
2022/12/21 18:10:00,27.1, 1.8
2022/12/21 18:20:00,27.5, 1.8
2022/12/21 18:30:00,27.9, 1.9
2022/12/21 18:40:00,28.0, 1.7
2022/12/21 18:50:00,27.9, 2.0
2022/12/21 19:00:00,27.7, 2.1
2022/12/21 19:10:00,27.5, 2.1
2022/12/21 19:20:00,27.4, 2.3
2022/12/21 19:30:00,27.3, 2.3
2022/12/21 19:40:00,27.1, 2.3
2022/12/21 19:50:00,27.1, 2.4
2022/12/21 20:00:00,26.9, 2.5
2022/12/21 20:10:00,26.8, 2.7
2022/12/21 20:20:00,26.8, 2.6
2022/12/21 20:30:00,26.7, 2.7
2022/12/21 20:40:00,26.6, 2.9
2022/12/21 20:50:00,26.4, 2.9
2022/12/21 21:00:00,26.2, 3.3
2022/12/21 21:10:00,26.1, 3.3
2022/12/21 21:20:00,26.2, 3.3
2022/12/21 21:30:00,26.3, 3.1
2022/12/21 21:40:00,26.3, 3.5
2022/12/21 21:50:00,26.2, 3.8
2022/12/21 22:00:00,26.1, 3.9
2022/12/21 22:10:00,26.2, 3.4
2022/12/21 22:20:00,26.1, 3.5
2022/12/21 22:30:00,26.1, 3.4
2022/12/21 22:40:00,26.1, 3.4
2022/12/21 22:50:00,26.0, 3.1
2022/12/21 23:00:00,25.9, 3.3
2022/12/21 23:10:00,25.8, 3.5
2022/12/21 23:20:00,25.8, 3.3
2022/12/21 23:30:00,25.7, 3.1
2022/12/21 23:40:00,25.6, 3.1
2022/12/21 23:50:00,25.5, 2.9
